Location: Middle Street
(51.7167°N, 0.0333°E)
Time: 20:06:19
(UTC+00:00)

Iridium 4 Rocket - Pass Details

Date: 20 January 2021
Orbit: 583 x 906 km, 86.9° (Epoch: 27 February)

Event Time Altitude Azimuth Distance (km) Brightness Sun altitude
Rises 18:36:56 0° 358° (N) 3,521 6.9 -19.5°
Reaches altitude 10° 18:39:30 10° 2° (N) 2,553 6.1 -19.9°
Maximum altitude 18:45:13 59° 82° (E) 977 3.7 -20.7°
Drops below altitude 10° 18:50:30 10° 161° (SSE) 2,364 5.9 -21.6°
Sets 18:52:48 0° 166° (SSE) 3,241 6.7 -21.9°
